Theta_e
351 352 351 348 346 347 352 353 350 348 346 344 344 343 342 344 344 343 343 342 340 339 333 324 317 318 322 322 322 327 329 330 334 336 334 334 332 333 336 336 336 335
348 349 349 347 346 347 351 352 349 346 345 347 347 345 343 342 342 343 343 343 339 335 328 319 317 316 318 320 319 320 322 322 326 333 335 334 335 336 336 335 336 335
346 347 346 346 345 345 349 352 351 349 347 348 349 348 344 342 343 344 343 341 338 335 329 320 318 317 316 319 319 319 320 318 320 328 333 331 330 332 333 335 337 337
345 345 344 344 343 343 345 349 351 351 350 348 348 347 344 341 342 343 341 339 337 334 329 322 318 318 316 317 320 320 320 320 320 328 334 331 326 327 330 332 335 336
344 344 344 344 343 342 343 345 348 350 349 346 345 345 344 340 341 342 339 337 337 335 330 324 319 319 317 317 319 320 321 322 322 327 334 334 330 328 327 327 328 329
345 344 344 344 343 342 342 344 348 348 346 344 344 344 343 341 340 341 338 336 336 336 332 325 321 320 318 317 319 319 321 323 324 327 330 331 330 328 328 329 330 329
345 345 345 344 343 343 344 345 347 347 345 344 343 344 343 342 341 341 339 336 336 338 335 327 323 321 319 318 319 320 321 323 325 329 330 330 329 328 328 330 332 333
346 345 346 345 343 344 347 347 346 345 344 343 343 343 342 342 342 341 339 337 337 338 336 330 325 322 320 319 320 322 324 323 324 329 334 334 333 331 328 326 327 327
349 348 346 345 344 345 347 346 344 343 342 343 342 342 342 341 341 341 339 338 336 336 336 332 327 324 322 320 321 324 325 324 323 326 331 332 332 330 327 324 322 321
353 352 348 347 347 345 343 342 342 341 340 341 341 341 341 340 339 340 339 337 335 335 337 335 330 326 322 320 322 325 326 325 323 323 325 328 328 327 324 321 320 321
352 353 353 353 351 346 340 338 340 341 337 336 338 339 339 339 338 338 337 336 334 335 336 335 332 327 322 319 322 325 326 325 324 324 326 330 331 329 324 320 318 321
351 353 358 359 354 348 341 337 340 342 337 333 334 336 337 339 339 338 337 335 333 334 335 335 334 329 322 319 321 324 326 325 324 324 326 330 332 330 325 320 318 321
353 353 358 358 355 351 346 342 341 341 338 332 331 335 338 339 340 339 339 338 335 334 334 335 335 330 324 320 320 323 326 326 325 325 325 326 328 326 324 322 320 321
357 356 356 355 353 353 350 346 344 341 339 337 333 333 335 338 340 340 340 340 337 334 334 336 335 331 326 322 320 323 326 327 326 326 326 326 328 327 325 325 324 321
360 361 359 355 354 354 351 347 343 339 339 341 338 335 334 338 339 339 340 341 338 335 335 337 336 333 329 326 322 322 325 327 326 326 327 328 331 330 327 325 324 322
362 364 363 359 356 354 351 346 342 340 340 341 339 337 338 340 341 340 340 340 338 336 337 338 338 335 332 329 325 322 324 327 326 326 327 329 332 332 327 322 322 323
361 363 364 362 358 354 352 349 345 343 343 342 340 339 342 344 344 342 342 342 341 338 337 338 338 337 334 331 327 323 323 326 326 326 326 328 332 333 328 322 321 323
360 364 365 364 360 356 353 351 349 348 347 345 343 343 345 345 345 344 344 345 343 339 338 339 340 338 335 332 329 325 324 326 326 326 327 328 330 331 329 324 322 323
361 365 366 365 362 359 356 354 352 350 348 346 346 346 346 346 346 346 346 345 343 340 340 341 342 340 337 333 330 326 325 326 326 325 328 330 331 331 329 325 324 325
364 367 366 365 364 361 359 357 354 351 348 346 346 346 347 348 348 347 345 344 342 340 341 341 341 340 338 335 332 328 326 326 325 324 326 330 332 333 331 328 326 326
365 366 366 366 365 363 362 359 356 354 351 348 348 347 347 348 347 346 345 343 342 341 340 340 340 339 338 336 334 332 330 327 326 325 325 327 329 333 333 330 327 328
364 366 366 366 365 364 362 360 358 356 354 352 352 350 350 349 348 346 345 343 342 341 340 340 340 339 338 337 336 336 334 333 330 327 325 325 326 329 330 329 328 331
364 365 366 366 366 364 362 361 359 358 356 355 354 353 352 350 349 348 347 345 344 343 342 341 340 339 339 338 338 337 336 336 334 330 327 326 327 328 329 329 330 331
364 365 366 367 365 364 362 360 358 357 356 355 355 354 353 351 350 350 349 349 347 345 343 342 341 340 340 338 338 337 336 336 335 332 329 327 329 331 331 330 330 330
368 367 367 366 363 361 360 359 358 356 356 356 355 354 354 353 352 351 349 348 346 345 344 343 342 341 340 339 339 338 338 337 336 333 330 329 331 331 329 329 330 330
367 365 365 363 360 359 358 357 356 355 355 355 355 354 354 352 351 349 347 346 345 344 343 343 342 341 340 340 340 339 339 339 337 334 331 330 331 330 330 331 331 330
Wind_Speed
30 28 27 26 25 23 23 24 23 21 19 19 18 16 15 16 16 14 13 14 14 15 13 10 9 9 11 12 12 16 15 11 11 9 6 7 8 8 9 8 7 9
31 30 28 27 26 24 24 24 23 21 20 19 17 17 17 18 17 16 16 17 18 15 12 9 8 9 11 11 11 14 15 13 13 12 10 10 10 10 11 10 7 7
32 31 30 29 27 26 25 24 22 21 21 20 18 18 19 18 18 18 19 20 20 18 15 11 10 10 11 12 11 12 13 13 13 14 13 13 12 12 12 10 8 8
32 32 31 30 28 28 27 25 24 23 22 22 21 21 21 20 20 21 21 21 20 19 17 14 13 12 11 13 12 12 12 12 12 14 14 13 11 11 12 12 12 13
33 32 31 31 29 28 28 27 26 26 25 24 24 24 25 24 24 24 24 23 21 20 18 17 16 14 12 14 14 13 13 12 11 13 15 14 13 11 11 11 10 11
35 33 32 31 30 30 29 29 28 28 28 27 26 26 27 27 26 26 26 25 23 22 21 19 18 16 14 14 15 15 14 13 11 12 14 14 14 12 10 9 8 7
36 35 33 32 31 31 31 29 30 31 30 29 29 29 30 29 28 28 28 26 24 23 23 22 20 18 16 15 15 16 15 14 12 13 13 12 12 12 10 9 10 10
37 36 35 34 33 33 31 31 32 33 32 31 32 32 32 31 30 29 29 28 26 25 25 24 22 20 19 17 16 16 15 14 14 15 15 15 14 13 11 10 11 13
37 36 36 36 36 34 33 33 34 35 34 33 33 33 34 33 31 30 30 30 29 28 27 26 24 22 21 20 18 16 14 13 13 16 18 18 18 16 13 11 11 11
38 37 38 38 38 36 36 37 37 37 36 34 34 34 34 35 33 32 32 32 31 31 30 29 27 25 23 22 20 17 15 14 14 15 16 17 16 15 13 11 11 12
40 39 39 39 39 39 39 39 39 40 39 37 37 37 37 37 36 35 35 35 34 33 32 31 29 27 24 24 22 19 17 15 15 16 15 15 15 15 13 12 12 13
42 42 40 39 39 41 40 40 40 41 41 40 40 40 40 39 38 38 38 37 36 35 34 34 31 28 26 25 23 21 19 17 17 17 16 17 18 17 16 14 13 14
43 43 42 40 41 42 41 41 42 42 42 43 42 42 41 40 39 39 39 40 38 36 35 35 33 30 28 27 25 23 20 19 19 17 16 18 18 18 17 15 15 15
42 43 42 42 42 42 42 42 43 43 43 44 44 44 43 41 40 41 42 41 39 38 37 37 34 33 31 28 26 25 22 21 19 17 16 17 17 17 17 16 16 16
41 41 42 42 43 43 44 44 44 44 45 44 44 45 44 42 40 42 44 42 40 39 39 38 37 36 34 30 28 27 25 22 19 17 17 18 19 19 18 18 18 17
40 40 41 42 44 45 45 45 45 45 46 45 45 44 43 41 41 43 45 43 41 41 40 40 39 37 35 32 29 27 26 23 20 18 17 19 21 21 20 20 19 18
40 40 41 43 45 47 46 46 46 46 46 45 44 44 42 40 41 43 44 43 42 41 41 42 41 39 37 34 31 28 26 23 20 18 18 19 22 23 22 21 19 18
42 42 42 43 45 46 46 45 45 45 44 43 43 42 42 42 42 43 42 40 39 41 42 42 41 40 38 36 33 29 26 24 21 19 20 21 23 24 23 22 20 19
44 43 43 43 43 43 44 44 44 43 42 41 42 42 43 43 42 42 41 38 37 38 39 40 40 40 38 37 34 29 26 24 21 20 22 23 23 23 23 22 21 20
45 44 43 43 42 41 43 43 42 41 41 42 42 42 43 43 42 42 41 39 38 37 37 36 37 38 37 36 33 28 26 25 22 21 22 23 22 23 23 22 21 20
46 44 44 43 42 42 42 39 36 37 41 42 41 41 41 42 41 41 41 39 37 37 36 35 34 34 34 33 30 26 24 24 24 22 23 24 24 24 23 22 21 21
46 44 44 43 42 40 36 31 31 36 39 39 38 38 38 39 39 38 38 37 35 34 34 32 30 29 28 27 24 21 21 22 23 24 25 25 25 25 25 23 21 21
45 44 44 43 39 35 31 29 31 34 36 35 34 34 34 34 34 33 33 32 30 28 28 27 25 24 23 23 22 20 20 21 23 24 25 25 24 25 24 23 22 21
45 44 42 38 34 31 30 30 31 32 33 32 32 32 31 30 27 25 24 23 20 18 17 19 20 21 22 22 22 21 21 21 22 22 23 23 23 23 23 22 21 20
43 40 37 34 32 31 30 30 29 29 28 27 28 28 28 26 22 19 18 17 15 14 14 14 15 18 20 21 21 21 22 22 21 21 22 22 22 22 21 21 21 20
35 34 33 32 31 30 27 25 25 25 24 25 26 25 25 24 21 18 17 14 13 14 16 16 16 17 19 20 22 22 21 21 21 21 22 22 21 20 19 20 20 20
Wind_Direction
213 212 212 210 211 208 201 203 211 211 213 217 216 215 213 211 216 222 225 229 230 242 248 230 221 219 214 222 214 208 216 208 195 197 185 188 186 179 193 201 210 214
214 212 211 210 210 209 204 205 211 213 212 214 215 216 216 216 218 215 214 228 238 242 244 231 220 219 215 220 217 210 218 215 199 191 187 190 190 193 202 201 212 240
212 211 211 211 211 209 206 206 209 211 211 209 211 218 222 221 220 216 216 229 239 241 247 246 231 220 213 217 216 207 213 218 206 197 195 195 195 198 200 198 212 240
211 210 211 211 211 212 210 209 208 209 211 212 213 219 225 226 224 224 227 232 235 239 245 244 235 224 212 212 214 208 207 212 206 200 202 204 200 203 205 203 209 217
211 209 210 210 211 213 213 213 211 210 213 217 218 221 227 230 228 230 234 235 234 236 238 238 234 226 214 210 212 211 206 204 200 197 207 216 213 213 218 216 215 219
210 209 209 209 210 213 215 213 212 215 218 220 222 223 227 232 233 235 238 238 237 236 234 234 231 225 219 212 208 210 206 203 203 203 210 221 223 220 218 219 226 238
209 208 208 209 210 213 214 213 213 218 221 222 223 226 229 233 235 237 239 239 238 237 233 232 231 225 221 216 209 207 205 203 205 212 220 227 228 226 221 219 225 234
209 208 208 210 212 210 210 212 216 220 223 224 225 228 232 235 236 237 239 238 237 237 233 230 231 227 220 218 214 205 203 204 204 209 220 228 230 232 234 232 231 234
208 208 209 212 212 209 209 213 218 222 224 226 227 230 234 236 238 238 237 237 236 237 233 229 229 226 220 218 217 210 204 208 210 210 215 222 226 228 232 236 240 242
207 209 211 212 210 210 213 216 220 223 225 227 230 233 236 238 239 239 238 238 237 235 233 230 227 225 220 218 218 214 209 212 217 218 217 221 226 229 232 235 238 239
209 211 212 211 210 213 218 219 221 224 226 229 231 234 238 239 239 238 237 237 236 234 233 231 229 226 223 220 219 215 213 217 220 221 219 221 227 232 237 240 240 238
212 212 210 209 210 214 219 220 221 225 229 231 232 234 236 238 238 237 237 237 237 235 234 233 231 229 226 223 222 217 214 218 221 220 218 219 225 231 235 239 238 234
214 213 210 210 213 215 217 218 219 223 230 234 234 233 235 236 237 238 238 237 237 236 235 234 232 230 229 227 225 221 217 219 221 219 218 222 228 232 234 237 236 232
214 213 211 213 216 216 216 217 218 222 228 233 233 234 235 235 236 239 239 237 237 238 236 234 232 231 231 231 228 225 221 221 223 220 220 227 232 234 233 232 234 233
211 211 212 214 216 216 217 219 221 224 227 230 233 235 236 234 234 238 241 239 238 239 236 233 232 233 235 235 232 229 224 222 224 222 222 228 232 234 233 231 232 233
210 210 212 213 215 217 220 222 224 226 226 228 233 236 235 232 231 236 242 242 241 239 235 233 234 237 240 240 237 234 228 224 224 224 225 229 231 234 237 237 235 232
211 211 212 213 215 218 221 223 223 224 225 227 232 234 233 231 231 235 241 242 241 240 237 237 238 240 243 243 240 235 229 225 226 227 228 231 232 235 241 243 240 234
212 212 212 212 215 218 220 222 222 222 223 225 228 231 231 232 232 235 238 239 239 240 239 239 241 242 244 246 242 235 228 226 227 228 231 234 234 236 242 245 242 237
212 211 211 212 215 217 218 220 221 221 223 226 227 229 231 233 234 235 236 238 239 239 239 239 240 242 245 247 243 235 228 227 230 232 233 234 234 238 243 246 243 237
208 207 210 213 214 215 216 217 220 222 226 227 228 230 233 234 235 237 239 241 242 241 240 239 240 243 245 245 242 236 228 229 234 237 234 232 234 238 243 246 245 241
207 207 209 211 212 214 217 220 223 226 229 231 232 234 236 238 239 242 245 245 243 242 242 241 241 244 244 243 242 238 232 232 237 239 236 235 236 238 241 245 246 245
208 209 210 211 212 216 219 221 223 225 228 232 233 236 240 242 243 244 247 248 246 245 246 244 242 242 243 243 243 241 237 237 239 239 238 241 243 242 243 247 247 246
208 210 212 212 214 218 221 221 220 222 226 229 231 234 237 240 243 246 249 251 250 249 247 242 238 237 239 243 245 245 244 242 242 241 240 245 247 245 245 246 244 244
208 210 211 212 215 219 221 222 221 221 224 226 228 230 231 234 240 247 250 250 252 255 250 241 237 237 239 243 247 248 249 248 246 244 244 247 245 242 243 246 246 246
207 209 209 211 216 220 221 221 219 217 218 220 222 224 224 223 226 230 234 239 245 252 251 241 233 232 235 240 244 246 247 248 247 246 245 244 241 241 247 252 250 251
205 207 209 213 217 218 213 209 207 206 207 210 214 217 215 210 208 210 214 220 226 235 240 238 233 234 237 239 242 245 247 247 245 242 240 239 241 247 252 251 250 256